La Paz, Mexico

11:56 PM MDT on July 26, 2017 (GMT -0600)
Gen Manuel Marquez De Leon

Weather History for MMLP - May, 2013

Change the Weather History Date:

Friday, May 10, 2013

  Actual Average Record
Temperature  
Mean Temperature 76 °F -  
Max Temperature 93 °F 93 °F 97 °F (2012)
Min Temperature 59 °F 62 °F 57 °F (2003)
Cooling Degree Days 11    
Growing Degree Days 26 (Base 50)    
Moisture  
Dew Point 47 °F    
Average Humidity 38    
Maximum Humidity 82    
Minimum Humidity 12    
Precipitation  
Precipitation 0.00 in - - ()
Sea Level Pressure  
Sea Level Pressure 29.99 in    
Wind  
Wind Speed 7 mph ()    
Max Wind Speed 15 mph    
Max Gust Speed -    
Visibility 10.5 miles    
Events      
Averages and records for this station are not official NWS values.
T = Trace of Precipitation, MM = Missing Value Source: Averaged Metar Reports

Daily Weather History Graph

Daily Weather History Graph

Search for Another Location

Airport or City:

Trip Planner

Search our weather history database for the weather conditions in past years. The results will help you decide how hot, cold, wet, or windy it might be!

Date:

Astronomy

May. 10, 2013 Rise Set
Actual Time 6:41 AM MDT 7:54 PM MDT
Civil Twilight 6:16 AM MDT 8:19 PM MDT
Nautical Twilight 5:48 AM MDT 8:48 PM MDT
Astronomical Twilight 5:18 AM MDT 9:17 PM MDT
Moon 7:08 AM MDT (5/10) 8:44 PM MDT (5/10)
Length of Visible Light 14h 02m
Length of Day
13h 13m
New Moon, 1% of the Moon is Illuminated
May 10
New Moon
May 17
First Quarter
May 24
Full
May 31
Last Quarter
Jun 8
New

Hourly Weather History & Observations

Time (MDT) Temp. Heat Index Dew Point Humidity Pressure Visibility Wind Dir Wind Speed Gust Speed Precip Events Conditions
2:50 AM 68 °F - 55 °F 54% 29.99 in 2 mi South 6.7 mph - -  
5:50 AM 64 °F - 55 °F 64% 29.98 in 2 mi South 6.7 mph - -  
5:53 AM 60.8 °F - 53.6 °F 77% 30.04 in 10.0 mi South 11.5 mph - N/A   Clear
6:40 AM 59.0 °F - 53.6 °F 82% 29.98 in 10.0 mi South 10.4 mph - N/A   Clear
7:40 AM 60.8 °F - 51.8 °F 72% 30.00 in 10.0 mi South 10.4 mph - N/A   Clear
8:44 AM 68.0 °F - 50.0 °F 52% 30.07 in 10.0 mi South 6.9 mph - N/A   Clear
8:50 AM 71 °F - 51 °F 38% 30.01 in 12 mi South 6.7 mph - -  
9:41 AM 73.4 °F - 46.4 °F 38% 30.02 in 10.0 mi Calm Calm - N/A   Clear
10:42 AM 78.8 °F - 39.2 °F 24% 30.02 in 10.0 mi Calm Calm - N/A   Clear
11:47 AM 84.2 °F - 32.0 °F 15% 30.06 in 10.0 mi NW 3.5 mph - N/A   Clear
12:00 PM 88 °F - 46 °F 14% 29.96 in 19 mi NW 4.5 mph - -  
12:47 PM 84.2 °F - 35.6 °F 18% 29.99 in 10.0 mi North 15.0 mph - N/A   Clear
1:40 PM 86.0 °F - 41.0 °F 20% 29.98 in 12.0 mi NNW 9.2 mph - N/A   Clear
2:40 PM 84.2 °F - 39.2 °F 20% 30.02 in 12.0 mi North 11.5 mph - N/A   Clear
2:45 PM 90 °F - 46 °F 13% 29.96 in 19 mi North 6.7 mph - -  
3:40 PM 86.0 °F - 35.6 °F 17% 29.95 in 12.0 mi NNW 5.8 mph - N/A   Clear
4:40 PM 89.6 °F - 35.6 °F 15% 29.92 in 12.0 mi NNW 3.5 mph - N/A   Clear
5:41 PM 87.8 °F - 39.2 °F 18% 29.96 in 12.0 mi SW 11.5 mph - N/A   Clear
5:45 PM 93 °F - 47 °F 12% 29.88 in 19 mi SW 6.7 mph - -  
6:46 PM 80.6 °F 80.3 °F 53.6 °F 39% 29.94 in 12.0 mi NNW 11.5 mph - N/A   Clear
7:40 PM 78.8 °F - 46.4 °F 32% 29.96 in 12.0 mi West 4.6 mph - N/A   Clear
8:44 PM 73.4 °F - 50.0 °F 44% 30.03 in 12.0 mi SSW 9.2 mph - N/A   Clear
8:45 PM 78 °F - 54 °F 34% 29.95 in 2 mi South 6.7 mph - -  
9:49 PM 68.0 °F - 53.6 °F 60% 30.01 in 10.0 mi South 12.7 mph - N/A   Clear
10:40 PM 66.2 °F - 53.6 °F 64% 30.01 in 10.0 mi South 10.4 mph - N/A   Clear
11:50 PM 68 °F - 55 °F 54% 30.00 in 2 mi South 8.9 mph - -